Regional Weather Roundup
Issued by NWS

Home | Current Version | Previous Version | Text Only | Print | Product List | Glossary Off
Versions: 1 2 3 4 5 6 7 8 9 10 11 12 13 14 15 16 17 18 19 20 21 22 23 24 25 26 27 28 29 30 31 32 33 34 35 36 37 38 39 40 41 42 43 44 45 46 47 48 49 50

000
ASUS43 KLOT 271908
RWRIL

ILLINOIS REGIONAL WEATHER ROUNDUP
NATIONAL WEATHER SERVICE CHICAGO/ROMEOVILLE IL
200 PM CDT WED JUL 27 2016

NOTE: "FAIR" INDICATES FEW OR NO CLOUDS BELOW 12,000 FEET WITH NO
SIGNIFICANT WEATHER AND/OR OBSTRUCTIONS TO VISIBILITY.

* THESE STATIONS ARE NOT UNDER NWS QUALITY CONTROL. THEY ALSO MAY NOT
  REPORT WEATHER SUCH AS PRECIPITATION OR FOG.

ILZ001-002-007-009-015-016-024-272000-
NORTHWEST ILLINOIS

CITY           SKY/WX    TMP DP  RH WIND       PRES   REMARKS
MOLINE         PTSUNNY   86  70  58 S10       29.97F HX  90
STERLING*      MOSUNNY   85  71  63 SE7       29.98F HX  90
SAVANNA*       MOSUNNY   85  68  56 SE3       29.98S HX  88
$$

ILZ003-004-008-010-011-017-018-272000-
NORTH CENTRAL ILLINOIS

CITY           SKY/WX    TMP DP  RH WIND       PRES   REMARKS
ROCKFORD       CLOUDY    85  65  51 S5        29.99F HX  86
FREEPORT*      CLOUDY    83  66  56 S7        30.01F HX  85
ROCHELLE*      MOSUNNY   83  70  66 S3        30.00F HX  87
DE KALB*       MOSUNNY   84  68  58 S7        30.01F HX  87
$$

ILZ005-006-012>014-019>023-272000-
NORTHEAST ILLINOIS

CITY           SKY/WX    TMP DP  RH WIND       PRES   REMARKS
CHICAGO-OHARE  MOSUNNY   87  63  44 VRB5      29.98F HX  88
CHICAGO-MIDWAY MOSUNNY   88  63  43 SW7       29.97F HX  89
AURORA         MOSUNNY   87  68  52 CALM      29.99F HX  90
LANSING*       SUNNY     86  63  46 CALM      29.99F HX  87
JOLIET*        MOSUNNY   86  70  58 S5        29.99F HX  90
WAUKEGAN       MOSUNNY   88  61  40 SW9       29.97F HX  88
DUPAGE AIRPORT SUNNY     86  63  45 CALM      29.99F HX  87
KANKAKEE*      SUNNY     87  68  51 CALM      30.01F HX  91
WHEELING       MOSUNNY   88  61  40 VRB5      29.99F HX  88
MORRIS*        MOSUNNY   85  69  57 CALM      29.98F HX  89
ROMEOVILLE*    MOSUNNY   86  62  44 W6        29.99F HX  86
NORTHERLY ISL    N/A     82  70  66 N2          N/A  HX  86
$$

LMZ740>746-272000-
SOUTHERN LAKE MICHIGAN

STATION/POSITION SKY/WX   TEMP    WIND        PRES    VSBY  WAVE
                          AIR SEA DIR/SP/G                  HT/PER
                          (F)     (DEG/KT/KT) (MB)    (MI)  (FT/S)
SOUTHERN BUOY              77 76  190/  6/  8 1014.9F         0
WILMETTE HARBOR            77 71  140/  6/  6   N/A           0
HARRISON CRIB              80     110/  7/  7   N/A
BURNHAM HARBOR             82      80/  3/  8   N/A
BURNS HARBOR               78      20/  6/  7 1016.9F
MICHIGAN CITY              81     330/  6/  6   N/A
MICHIGAN CITY 6N           78 78  360/  4/  6   N/A           0
ST. JOSEPH                 77 79  270/  4/  4 1015.7F         0
$$

ILZ025>027-034>036-040-047-049-050-058-095>099-272000-
WEST-CENTRAL ILLINOIS

CITY           SKY/WX    TMP DP  RH WIND       PRES   REMARKS
QUINCY         PTSUNNY   86  74  67 SE7       29.96F HX  94
GALESBURG*     MOSUNNY   85  70  60 SE3       29.98F HX  89
MACOMB*        MOSUNNY   84  71  65 CALM      30.00F HX  89
JACKSONVILLE*  PTSUNNY   86  75  70 E9        29.97F HX  95
PITTSFIELD*    MOSUNNY   86  76  71 NE3       29.97F HX  96
$$

ILZ028>032-037-038-041>044-048-051>054-059>061-272000-
CENTRAL ILLINOIS

CITY           SKY/WX    TMP DP  RH WIND       PRES   REMARKS
PONTIAC        SUNNY     85  72  64 S5        30.00F HX  91
BLOOMINGTON    MOSUNNY   84  69  60 SE6       30.01F HX  88
DECATUR        SUNNY     87  71  58 E7        29.99F HX  93
PEORIA         MOSUNNY   86  69  56 VRB3      29.98F HX  90
LACON*         MOSUNNY   85  67  54 SE7       29.98F HX  88
LINCOLN*       MOSUNNY   86  73  66 SE6       29.98F HX  93
SPRINGFIELD    TSTM      81  76  84 SE6       29.98F HX  87
TAYLORVILLE    CLOUDY    83  73  72 MISG      29.98F HX  88
$$

ILZ033-039-045-046-055>057-062-063-272000-
EAST-CENTRAL ILLINOIS

CITY           SKY/WX    TMP DP  RH WIND       PRES   REMARKS
CHAMPAIGN      SUNNY     85  68  56 SE5       30.00F HX  88
MATTOON        MOSUNNY   84  70  62 E5        29.99F HX  88
PARIS*         MOSUNNY   85  70  60 CALM      30.01F HX  90
$$

ILZ079-100>102-272000-
SOUTHWEST ILLINOIS

CITY           SKY/WX    TMP DP  RH WIND       PRES   REMARKS
ALTON          MOSUNNY   84  73  70 SE7       29.97F HX  91
BELLEVILLE     PTSUNNY   85  75  72 VRB5      29.95F HX  94
CAHOKIA*       MOSUNNY   87  73  62 E5        29.96F HX  94
SPARTA*        CLOUDY    83  76  79 CALM      29.99F HX  90
$$

ILZ064>066-069>071-074>076-080>082-084>086-088>090-092>094-272000-
SOUTH-CENTRAL ILLINOIS

CITY           SKY/WX    TMP DP  RH WIND       PRES   REMARKS
CARBONDALE     MOSUNNY   87  75  67 CALM      29.96F HX  96
CAIRO*         SUNNY     88  78  71 CALM      29.93F HX 102
EFFINGHAM*     CLOUDY    85  75  71 E6        30.00F HX  94
MARION         PTSUNNY   88  77  70 W7        29.97F HX 100
MT. VERNON     CLOUDY    84  73  70 MISG      29.97F HX  91
CENTRALIA*     PTSUNNY   84  77  80 CALM      29.98F THUNDER HX  94
SALEM*         CLOUDY    85  75  73 CALM      29.99S THUNDER HX  93
METROPOLIS*    MOSUNNY   92  75  57 CALM      29.95F HX 103
$$

ILZ067-068-072-073-078-083-087-091-272000-
SOUTHEAST ILLINOIS

CITY           SKY/WX    TMP DP  RH WIND       PRES   REMARKS
LAWRENCEVILLE  CLOUDY    86  75  69 N6        29.98F HX  95
FLORA*         CLOUDY    85  76  75 CALM      29.99F HX  94
FAIRFIELD*     MOSUNNY   84  77  78 CALM      29.96F HX  94
HARRISBURG*    CLOUDY    89  77  69 CALM      29.96F HX 101
ROBINSON*      PTSUNNY   86  74  68 N3        29.99F HX  93
CARMI*         CLOUDY    88  76  68 CALM      29.95F HX  99
$$

ABBREVIATIONS USED IN REMARKS
   TC - TEMPERATURE IN CELSIUS
  WCI - WIND CHILL INDEX
   HX - HEAT INDEX
  VSB - VISIBILITY
$$





USA.gov is the U.S. government's official web portal to all federal, state and local government web resources and services.